CZ-2D R/B, 28738

Orbit data source: Space-Track

CZ-2D R/B, 28738 is space debris in SSO originally from a launch on Tue, 05 Jul 2005 UTC launched from the Jiuquan Satellite Launch Center, China (JSC). Debris objects in space refer to the collection of defunct objects orbiting the Earth. Examples of debris include non-operational satellites, rocket bodies, and fragments generated from explosions, collisions, or faulty payload assembly.

Loading next visibility...
Identifier
28738, 2005-024B
Orbit
SSO
Country
Flag of CNCN / PRC
Related business
Manufacturer
BWYIC
Mission
Spacecraft
Bus & Motor
CZ-2 STAGE 2, Unknown motor
Mass
4,006 kg wet, 4,006 kg dry
Launch date (UTC)
2005-07-05 (20 years ago)
Launch vehicle
Unknown
Launch site
Jiuquan Satellite Launch Center, China (JSC)
Object type
Payload
Rocket body
Debris
Shape & HBR
Cyl + 1 Sail, 4.0 m
Radar Cross Section
25.456 m², Large (>1 m²)

Expand to show TLE details & history
Last TLE update: 6 hours ago

TLE from 6 hours ago
0 CZ-2D R/B
1 28738U 05024B   25291.24912521  .00037374  00000-0  67855-3 0  9992
2 28738  97.3695 297.3771 0006038 161.2581 198.8894 15.49466628117654
Epoch: 2025-10-18T05:58Z
TLE epoch observation values (Epoch: 2025-10-18T05:58:44.418Z)
Latitude
0.00004°
Longitude
-179.29084°
Altitude
425.3 km
Speed
7.654 km/s
True Right ascension
19h 49m 30s
True Declination
0° 00' 00"
Sunlit
Object was in daylight at epoch
Visualization orbit readout
Latitude
Unknown
Longitude
Unknown
Altitude
Unknown
Speed
Unknown
Apparent Right ascension
Unknown
Apparent Declination
Unknown
Sunlit
N/A
Visualization observer readout
Local Sidereal Time
07:08:19
Azimuth
Unknown
Elevation
Unknown
Doppler factor
Unknown
Orbital elements
Apogee altitude
419.312 km
Perigee altitude
411.109 km
Semi-major axis
6,793.347 km
Eccentricity
0.0006
Inclination
97.3695°
RAAN
297.3771°
Arg. of periapsis
161.2581°
True anomaly
198.86702°
Mean anomaly
198.8894°
Eccentric anomaly
198.87821°
Mean motion
3.8763 °/min
Orbital period
92.87 mins
BSTAR
0.00067855
Loading maneuver chart data...
Computing Atmospheric mass density...
Loading historical data...
Loading historical data...
Loading historical data...
Loading historical data...
Loading historical data...
Loading historical data...
Loading historical data...

Documentation

Showing up to 5 results
|